EW1867 Weather Reports


Display with metric or nautical units.
time (UTC)temp
F
wind
direction
speed
MPH
gust
MPH
rain 1hr
in
rain 24hr
in
rain mn
in
humidity
%
barometer
mb
20260904040825 65 0 0.0 0.0 0.00 0.00 0.00 85 1010.8
20260904035925 65 0 0.0 0.0 0.00 0.00 0.00 85 1010.7
20260904035026 65 286 0.0 1.0 0.00 0.00 0.00 83 1010.6
20260904034125 66 296 1.0 2.0 0.00 0.00 0.00 82 1010.7
20260904031425 67 279 1.0 4.0 0.00 0.00 0.00 77 1010.4
20260904030525 67 273 1.0 3.0 0.00 0.00 0.00 76 1010.4
20260904025625 68 285 1.0 3.0 0.00 0.00 0.00 76 1010.4
20260904024725 68 278 1.0 4.0 0.00 0.00 0.00 75 1010.5
20260904023825 69 280 1.0 3.0 0.00 0.00 0.00 74 1010.5
20260904022925 70 223 1.0 4.0 0.00 0.00 0.00 75 1010.6
20260904022026 70 213 1.0 5.0 0.00 0.00 0.00 75 1010.5
20260904021125 70 214 1.0 4.0 0.00 0.00 0.00 75 1010.5
20260904015326 70 220 1.0 5.0 0.00 0.00 0.00 74 1010.5
20260904014425 71 217 2.0 5.0 0.00 0.00 0.00 73 1010.5
20260904013525 71 217 1.0 5.0 0.00 0.00 0.00 73 1010.6
20260904012625 71 200 1.0 4.0 0.00 0.00 0.00 73 1010.7
20260904011726 71 221 2.0 8.0 0.00 0.00 0.00 72 1010.6
20260904010825 72 224 2.0 7.0 0.00 0.00 0.00 71 1010.6
20260904005925 72 224 2.0 6.0 0.00 0.00 0.00 70 1010.7
20260904005025 72 222 2.0 5.0 0.00 0.00 0.00 71 1010.9
20260904004126 72 223 2.0 6.0 0.00 0.00 0.00 71 1010.8
20260904003225 72 216 3.0 5.0 0.00 0.00 0.00 70 1010.8
20260904002325 72 219 3.0 8.0 0.00 0.00 0.00 69 1010.7
20260904001425 73 217 3.0 7.0 0.00 0.00 0.00 69 1010.7
20260904000525 73 221 3.0 9.0 0.00 0.00 0.00 68 1010.7
20260903235626 73 224 4.0 9.0 0.00 0.00 0.00 68 1010.6
20260903233825 74 226 3.0 8.0 0.00 0.00 0.00 66 1010.8
20260903232925 74 222 3.0 10.0 0.00 0.00 0.00 66 1010.9
20260903232025 75 218 3.0 12.0 0.00 0.00 0.00 66 1011.0
20260903231125 75 226 3.0 7.0 0.00 0.00 0.00 66 1011.1
20260903230225 75 219 3.0 9.0 0.00 0.00 0.00 66 1011.2
20260903224426 74 223 4.0 12.0 0.00 0.00 0.00 65 1011.3
20260903223525 75 222 3.0 10.0 0.00 0.00 0.00 65 1011.4
20260903222625 75 201 2.0 7.0 0.00 0.00 0.00 64 1011.4
20260903220825 76 215 2.0 8.0 0.00 0.00 0.00 64 1011.5
20260903214125 76 213 2.0 5.0 0.00 0.00 0.00 64 1011.9
20260903213225 75 209 2.0 6.0 0.00 0.00 0.00 64 1012.0
20260903212325 76 219 2.0 6.0 0.00 0.00 0.00 64 1012.1
20260903211425 76 227 3.0 9.0 0.00 0.00 0.00 64 1012.2
20260903210526 75 220 3.0 11.0 0.00 0.00 0.00 64 1012.2
20260903205625 75 215 3.0 11.0 0.00 0.00 0.00 65 1012.2
20260903204726 75 222 2.0 6.0 0.00 0.00 0.00 65 1012.3
20260903202926 74 221 2.0 10.0 0.00 0.00 0.00 65 1012.3
20260903202025 75 210 3.0 6.0 0.00 0.00 0.00 65 1012.4
20260903200225 74 215 3.0 7.0 0.00 0.00 0.00 66 1012.4
20260903195326 75 218 3.0 10.0 0.00 0.00 0.00 65 1012.5
20260903194425 76 217 2.0 6.0 0.00 0.00 0.00 63 1012.5
20260903193525 75 221 2.0 6.0 0.00 0.00 0.00 64 1012.7
20260903190826 74 123 1.0 4.0 0.00 0.00 0.00 66 1013.0
20260903185926 74 214 1.0 4.0 0.00 0.00 0.00 66 1013.1
20260903185025 74 222 2.0 4.0 0.00 0.00 0.00 67 1013.3
20260903183225 74 204 2.0 5.0 0.00 0.00 0.00 67 1013.6
20260903182325 73 162 1.0 6.0 0.00 0.00 0.00 67 1013.6
20260903181426 72 143 1.0 5.0 0.00 0.00 0.00 68 1013.7
20260903180526 72 147 1.0 5.0 0.00 0.00 0.00 69 1013.7
20260903175625 71 108 2.0 5.0 0.00 0.00 0.00 71 1013.7
20260903174725 71 101 2.0 6.0 0.00 0.00 0.00 70 1013.9
20260903172925 70 121 1.0 7.0 0.00 0.00 0.00 71 1013.7
20260903172026 70 163 1.0 4.0 0.00 0.00 0.00 72 1013.8
20260903171126 69 197 1.0 4.0 0.00 0.00 0.00 74 1013.9
20260903170225 68 169 1.0 2.0 0.00 0.00 0.00 75 1014.0
20260903165326 67 144 1.0 3.0 0.00 0.00 0.00 76 1014.1
20260903164425 66 118 1.0 4.0 0.00 0.00 0.00 78 1014.1
20260903163526 66 118 1.0 5.0 0.00 0.00 0.00 78 1014.0
20260903162625 65 114 1.0 5.0 0.00 0.00 0.00 79 1014.2
20260903160825 64 115 1.0 5.0 0.00 0.00 0.00 79 1014.3
20260903155925 64 125 1.0 3.0 0.00 0.00 0.00 79 1014.3
20260903155025 64 108 1.0 4.0 0.00 0.00 0.00 80 1014.3
20260903154126 64 126 1.0 3.0 0.00 0.00 0.00 79 1014.4
20260903153226 64 117 1.0 4.0 0.00 0.00 0.00 79 1014.4
20260903152326 64 117 1.0 4.0 0.00 0.00 0.00 79 1014.5
20260903151425 64 118 1.0 4.0 0.00 0.00 0.00 79 1014.4
20260903150526 63 104 1.0 3.0 0.00 0.00 0.00 81 1014.3
20260903145626 62 108 2.0 5.0 0.00 0.00 0.00 82 1014.4
20260903144725 61 108 2.0 5.0 0.00 0.00 0.00 83 1014.4
20260903143825 61 107 1.0 6.0 0.00 0.00 0.00 83 1014.3
20260903142925 61 104 1.0 4.0 0.00 0.00 0.00 83 1014.3
20260903142026 60 110 1.0 6.0 0.00 0.00 0.00 83 1014.2
20260903135325 60 98 1.0 5.0 0.00 0.00 0.00 84 1014.1
20260903134425 60 94 1.0 5.0 0.00 0.00 0.00 84 1014.1
20260903133526 60 96 1.0 5.0 0.00 0.00 0.00 84 1014.0
20260903132625 60 97 2.0 5.0 0.00 0.00 0.00 84 1014.1
20260903131725 60 99 1.0 5.0 0.00 0.00 0.00 84 1014.1
20260903125926 60 112 0.0 2.0 0.00 0.00 0.00 83 1014.1
20260903125025 60 107 1.0 2.0 0.00 0.00 0.00 83 1014.2
20260903123226 61 110 1.0 5.0 0.00 0.00 0.00 83 1014.1
20260903122325 61 124 1.0 3.0 0.00 0.00 0.00 83 1014.1
20260903120526 61 105 1.0 4.0 0.00 0.00 0.00 83 1014.1
20260903115626 61 104 1.0 5.0 0.00 0.00 0.00 83 1014.1
20260903114725 61 111 1.0 5.0 0.00 0.00 0.00 83 1014.1
20260903113825 61 110 1.0 5.0 0.00 0.00 0.00 83 1014.3
20260903112925 61 104 1.0 4.0 0.00 0.00 0.00 83 1014.4
20260903112025 61 108 1.0 5.0 0.00 0.00 0.00 83 1014.4
20260903111125 61 112 1.0 4.0 0.00 0.00 0.00 83 1014.6
20260903110226 61 103 1.0 4.0 0.00 0.00 0.00 83 1014.5
20260903105632 61 114 1.0 2.0 0.00 0.00 0.00 83 1014.4
20260903103525 61 112 1.0 3.0 0.00 0.00 0.00 82 1014.5
20260903102626 61 109 1.0 3.0 0.00 0.00 0.00 82 1014.5
20260903101725 61 109 2.0 7.0 0.00 0.00 0.00 82 1014.5
20260903095926 61 107 1.0 3.0 0.00 0.00 0.00 81 1014.6
20260903095025 61 105 1.0 4.0 0.00 0.00 0.00 81 1014.6
20260903094125 61 106 1.0 5.0 0.00 0.00 0.00 80 1014.6
20260903093225 62 111 1.0 2.0 0.00 0.00 0.00 80 1014.7
20260903091425 62 113 1.0 4.0 0.00 0.00 0.00 80 1014.8
20260903085626 62 125 1.0 3.0 0.00 0.00 0.00 78 1014.9
20260903084725 62 123 1.0 3.0 0.00 0.00 0.00 77 1014.9
20260903083826 62 0 0.0 3.0 0.00 0.00 0.00 77 1014.8
20260903081126 63 111 0.0 3.0 0.00 0.00 0.00 75 1014.8
20260903080226 63 111 1.0 4.0 0.00 0.00 0.00 74 1014.6
20260903075327 63 109 1.0 4.0 0.00 0.00 0.00 73 1014.6
20260903074425 63 0 0.0 2.0 0.00 0.00 0.00 72 1014.5
20260903073525 64 0 0.0 2.0 0.00 0.00 0.00 72 1014.6
20260903072626 64 0 0.0 1.0 0.00 0.00 0.00 71 1014.5
20260903071726 64 0 0.0 1.0 0.00 0.00 0.00 70 1014.3
20260903070826 65 0 0.0 2.0 0.00 0.00 0.00 69 1014.4
20260903065926 65 0 0.0 3.0 0.00 0.00 0.00 69 1014.4
20260903065025 65 0 0.0 1.0 0.00 0.00 0.00 69 1014.3
20260903062326 66 0 0.0 1.0 0.00 0.00 0.00 67 1014.3
20260903061426 66 0 0.0 2.0 0.00 0.00 0.00 67 1014.3
20260903060526 67 0 0.0 2.0 0.00 0.00 0.00 66 1014.4
20260903055625 67 0 0.0 1.0 0.00 0.00 0.00 66 1014.4
20260903054734 67 0 0.0 0.0 0.00 0.00 0.00 66 1014.4
20260903053826 68 0 0.0 1.0 0.00 0.00 0.00 65 1014.5
20260903052926 68 0 0.0 2.0 0.00 0.00 0.00 64 1014.5
20260903050226 69 0 0.0 3.0 0.00 0.00 0.00 63 1014.5
20260903045326 69 147 0.0 1.0 0.00 0.00 0.00 64 1014.5
20260903044426 70 214 1.0 3.0 0.00 0.00 0.00 63 1014.6
20260903042626 70 0 0.0 1.0 0.00 0.00 0.00 62 1014.5
20260903041726 70 0 0.0 1.0 0.00 0.00 0.00 61 1014.4